Flag for Cuba Weather past 2 weeks in Santa Clara, Cuba

Now
66 °F

Mild.


Feels Like: 66 °F
Forecast: 65 / 82 °F
Wind: 9 mph from Northeast

Location: Cienfuegos - Las Villas

Current Time: Mar 30, 2015 at 6:52:46 AM

Latest Report: Mar 30, 2015 at 5:58 AM


Visibility: N/A

Pressure: 30.12 "Hg

Humidity: 73%

Dew point: 57 °F

Location of Santa ClaraLocation

Historic Weather in Santa Clara — Graph

°F

Santa Clara temperature yesterday

Maximum temperature yesterday: 86 °F (at 2:50 PM)
Minimum temperature yesterday: 68 °F (at 4:58 AM)
Average temperature yesterday: 74 °F

Past Weeks' High & Low Weather Summary

 TemperatureHumidityPressure
High91 °F (Mar 16, 2:50 PM)100% (Mar 16, 7:58 AM)30.21 "Hg (Mar 16, 7:58 AM)
Low63 °F (Mar 24, 6:50 AM)31% (Mar 29, 3:50 PM)29.95 "Hg (Mar 18, 3:50 PM)
Average77 °F71%30.05 "Hg
* Reported Mar 15 5:58 AM — Mar 30 5:58 AM, Santa Clara, Weather by CustomWeather, © 2015

Note: Actual official high and low records may vary slightly from our data, if they occured in-between our weather recording intervals... More about our weather records

Advertising

Santa Clara weather history for previous 24 hours

 ConditionsComfort  
Time TempWeatherWind HumidityBarometerVisibility
5:58 AM
Mon, Mar 30
66 °FMild.9 mph73%30.12 "HgN/A
4:58 AM66 °FMild.9 mph73%30.12 "HgN/A
3:58 AM66 °FMild.8 mph78%30.12 "HgN/A
2:58 AM68 °FMild.8 mph73%30.15 "HgN/A
1:58 AM66 °FMild.9 mph78%30.18 "HgN/A
12:58 AM68 °FMild.8 mph73%30.18 "HgN/A
11:58 PM
Sun, Mar 29
68 °FMild.10 mph73%30.21 "HgN/A
10:58 PM70 °FMild.12 mph69%30.21 "HgN/A
9:58 PM72 °FMild.12 mph65%30.21 "HgN/A
8:58 PM72 °FMild.14 mph61%30.18 "HgN/A
7:50 PM73 °FPartly sunny.16 mph53%30.18 "HgN/A
6:50 PM77 °FPartly sunny.16 mph47%30.15 "HgN/A
5:50 PM81 °FScattered clouds.18 mph39%30.15 "HgN/A
4:50 PM84 °FPassing clouds.16 mph31%30.12 "HgN/A
3:50 PM86 °FPassing clouds.15 mph31%30.12 "HgN/A
2:50 PM86 °FPassing clouds.14 mph33%30.15 "HgN/A
1:50 PM84 °FPassing clouds.15 mph40%30.18 "HgN/A
12:50 PM82 °FScattered clouds.14 mph45%30.21 "HgN/A
11:50 AM81 °FScattered clouds.16 mph48%30.21 "HgN/A
10:50 AM77 °FScattered clouds.14 mph54%30.21 "Hg6 mi
9:50 AM72 °FPartly sunny.12 mph69%30.21 "Hg6 mi
8:50 AM70 °FPartly sunny.10 mph73%30.18 "Hg6 mi
7:58 AM70 °FMild.9 mph69%30.18 "HgN/A
6:58 AM68 °FMild.8 mph78%30.18 "HgN/A
Weather by CustomWeather, © 2015

See weather overviewHow to use our weather pages